TimeGMT,TemperatureF,Dew PointF,Humidity,Sea Level PressureIn,VisibilityMPH,Wind Direction,Wind SpeedMPH,Gust SpeedMPH,PrecipitationIn,Events,Conditions,WindDirDegrees,DateUTC
12:50 AM,32.0,28.4,87,30.39,6.2,Calm,Calm,-,N/A,,Scattered Clouds,0,2013-02-24 00:50:00
1:50 AM,32.0,28.4,87,30.39,6.2,Variable,2.3,-,N/A,,Mostly Cloudy,0,2013-02-24 01:50:00
2:50 AM,32.0,28.4,87,30.39,6.2,Calm,Calm,-,N/A,,Mostly Cloudy,0,2013-02-24 02:50:00
3:50 AM,30.2,26.6,86,30.39,6.2,Calm,Calm,-,N/A,,Mostly Cloudy,0,2013-02-24 03:50:00
4:50 AM,26.6,24.8,93,30.39,6.2,Calm,Calm,-,N/A,,Partly Cloudy,0,2013-02-24 04:50:00
5:50 AM,26.6,24.8,93,30.42,6.2,ESE,3.5,-,N/A,,Partly Cloudy,110,2013-02-24 05:50:00
6:20 AM,28.4,26.6,93,30.42,6.2,SE,2.3,-,N/A,,Scattered Clouds,130,2013-02-24 06:20:00
6:50 AM,28.4,26.6,93,30.42,6.2,Calm,Calm,-,N/A,,Scattered Clouds,0,2013-02-24 06:50:00
7:20 AM,28.4,26.6,93,30.42,6.2,East,3.5,-,N/A,,Scattered Clouds,100,2013-02-24 07:20:00
7:50 AM,28.4,26.6,93,30.42,6.2,Calm,Calm,-,N/A,,Scattered Clouds,0,2013-02-24 07:50:00
8:20 AM,30.2,28.4,93,30.42,6.2,Calm,Calm,-,N/A,,Partly Cloudy,0,2013-02-24 08:20:00
8:50 AM,32.0,30.2,93,30.45,6.2,East,2.3,-,N/A,,Partly Cloudy,100,2013-02-24 08:50:00
9:20 AM,32.0,28.4,87,30.45,6.2,Calm,Calm,-,N/A,,Partly Cloudy,0,2013-02-24 09:20:00
9:50 AM,32.0,28.4,87,30.45,6.2,Calm,Calm,-,N/A,,Partly Cloudy,0,2013-02-24 09:50:00
10:20 AM,32.0,30.2,93,30.45,6.2,Calm,Calm,-,N/A,,Partly Cloudy,0,2013-02-24 10:20:00
10:50 AM,33.8,32.0,93,30.45,6.2,Calm,Calm,-,N/A,,Partly Cloudy,0,2013-02-24 10:50:00
11:20 AM,35.6,32.0,87,30.48,6.2,Calm,Calm,-,N/A,,Partly Cloudy,0,2013-02-24 11:20:00
11:50 AM,37.4,32.0,81,30.48,6.2,Calm,Calm,-,N/A,,Partly Cloudy,0,2013-02-24 11:50:00
12:20 PM,37.4,33.8,87,30.48,6.2,NNE,5.8,-,N/A,,Partly Cloudy,30,2013-02-24 12:20:00
12:50 PM,39.2,32.0,75,30.45,6.2,NE,4.6,-,N/A,,Partly Cloudy,50,2013-02-24 12:50:00
1:20 PM,39.2,32.0,75,30.45,6.2,NE,4.6,-,N/A,,Partly Cloudy,50,2013-02-24 13:20:00
1:50 PM,41.0,33.8,76,30.45,6.2,NNE,6.9,-,N/A,,Partly Cloudy,30,2013-02-24 13:50:00
2:20 PM,42.8,33.8,70,30.45,6.2,NE,5.8,-,N/A,,Partly Cloudy,40,2013-02-24 14:20:00
2:50 PM,42.8,33.8,70,30.45,6.2,NE,5.8,-,N/A,,Partly Cloudy,50,2013-02-24 14:50:00
3:20 PM,41.0,33.8,76,30.45,6.2,NE,6.9,-,N/A,,Scattered Clouds,40,2013-02-24 15:20:00
3:50 PM,41.0,33.8,76,30.42,6.2,NNE,3.5,-,N/A,,Scattered Clouds,30,2013-02-24 15:50:00
4:20 PM,41.0,33.8,76,30.42,6.2,Variable,3.5,-,N/A,,Partly Cloudy,0,2013-02-24 16:20:00
4:50 PM,41.0,32.0,70,30.42,6.2,NE,4.6,-,N/A,,Partly Cloudy,40,2013-02-24 16:50:00
5:20 PM,41.0,32.0,70,30.45,6.2,North,2.3,-,N/A,,Partly Cloudy,10,2013-02-24 17:20:00
5:50 PM,41.0,32.0,70,30.45,6.2,NNE,2.3,-,N/A,,Partly Cloudy,30,2013-02-24 17:50:00
6:20 PM,37.4,30.2,75,30.45,6.2,Calm,Calm,-,N/A,,Scattered Clouds,0,2013-02-24 18:20:00
6:50 PM,37.4,32.0,81,30.45,6.2,NW,3.5,-,N/A,,Scattered Clouds,320,2013-02-24 18:50:00
7:20 PM,37.4,32.0,81,30.45,6.2,Calm,Calm,-,N/A,,Scattered Clouds,0,2013-02-24 19:20:00
7:50 PM,39.2,33.8,81,30.48,6.2,Variable,3.5,-,N/A,Rain,Light Rain,0,2013-02-24 19:50:00
8:20 PM,37.4,32.0,81,30.48,6.2,East,3.5,-,N/A,,Mostly Cloudy,90,2013-02-24 20:20:00
8:50 PM,35.6,32.0,87,30.48,6.2,Calm,Calm,-,N/A,,Scattered Clouds,0,2013-02-24 20:50:00
9:20 PM,35.6,32.0,87,30.48,6.2,Calm,Calm,-,N/A,,Scattered Clouds,0,2013-02-24 21:20:00
9:50 PM,35.6,32.0,87,30.48,6.2,Calm,Calm,-,N/A,,Scattered Clouds,0,2013-02-24 21:50:00
10:20 PM,35.6,32.0,87,30.48,6.2,Calm,Calm,-,N/A,,Scattered Clouds,0,2013-02-24 22:20:00
10:50 PM,35.6,33.8,93,30.48,6.2,Calm,Calm,-,N/A,,Scattered Clouds,0,2013-02-24 22:50:00
11:20 PM,35.6,33.8,93,30.48,6.2,East,4.6,-,N/A,,Scattered Clouds,100,2013-02-24 23:20:00
11:50 PM,33.8,32.0,93,30.48,6.2,ENE,3.5,-,N/A,,Scattered Clouds,60,2013-02-24 23:50:00